Helicity
37 39 30 25 26 24 16 19 14 5 11 10 8 5 8 25 -13 -15 7 101 92 90 60 90 14 18 19 15 15 26 58 110 71 103 109 94 87 55 67 96 80 63 55 41 37
50 52 40 34 27 27 23 20 23 18 15 10 7 -0 2 15 34 -1 97 77 69 66 46 36 36 16 11 18 10 62 78 83 63 107 128 110 127 83 99 101 73 63 36 41 17
49 55 52 33 28 19 19 16 24 20 14 8 6 -5 -2 25 41 55 63 51 66 72 78 91 73 38 28 20 21 35 69 68 66 82 97 87 80 68 78 90 72 51 45 33 20
51 54 50 37 13 22 19 16 18 15 16 10 2 -5 16 37 79 62 18 36 37 48 27 34 29 25 50 51 14 65 58 63 62 48 45 69 79 67 76 90 84 78 74 43 23
47 53 53 55 57 44 30 21 12 13 18 12 12 12 31 33 50 60 35 23 32 34 35 36 48 42 58 41 50 60 60 71 76 58 60 76 71 74 99 139 106 138 95 65 50
43 50 65 72 65 46 40 23 18 18 21 19 20 30 39 60 65 55 51 38 43 44 39 39 39 56 54 50 58 34 70 89 74 73 80 68 84 81 98 123 97 137 98 76 67
41 49 59 65 68 43 39 33 28 27 25 19 18 32 46 58 50 50 30 68 50 45 48 40 32 39 31 55 28 47 48 79 99 121 105 116 62 77 157 137 135 150 121 78 58
63 58 49 63 64 39 29 34 37 33 32 26 18 26 40 58 56 51 54 64 31 40 45 27 21 28 39 47 54 56 83 94 87 170 129 146 67 49 178 170 157 195 154 84 57
58 60 54 56 76 49 24 29 38 31 35 41 36 44 37 50 59 69 65 51 37 53 47 29 39 50 33 66 49 79 82 81 74 150 163 165 146 155 152 160 217 277 191 107 67
70 69 70 68 64 41 31 43 39 22 37 31 51 34 34 54 67 78 65 54 45 42 21 37 39 57 58 75 94 82 79 107 82 115 190 168 180 142 186 271 237 259 200 138 71
83 84 72 56 60 49 23 27 31 6 12 31 38 52 47 48 49 45 61 38 54 35 52 35 72 76 61 59 75 94 121 102 85 90 69 99 134 140 130 235 236 234 201 144 102
104 91 72 51 37 64 54 53 46 22 14 17 27 47 49 37 36 53 28 54 55 66 53 58 80 63 55 64 81 76 98 92 73 84 46 72 113 32 137 152 193 202 194 149 126
89 95 70 43 26 30 49 61 14 -8 25 19 29 45 35 27 42 38 44 33 62 64 61 93 75 64 77 91 85 83 124 88 120 68 62 39 43 68 55 95 134 157 158 157 135
82 94 74 55 34 36 35 18 -6 -7 45 -1 29 32 34 45 44 49 44 52 45 63 63 96 83 86 87 123 106 115 125 97 99 86 86 69 68 26 64 69 98 119 140 152 157
80 76 57 12 10 24 20 -6 -20 9 67 19 16 40 14 37 35 26 41 44 63 39 72 69 92 97 105 106 115 96 93 108 123 108 90 64 92 36 86 39 44 114 117 133 145
69 47 25 5 15 17 1 -21 4 43 54 16 22 22 34 25 23 18 23 37 43 51 63 67 87 96 109 90 106 83 88 120 131 142 98 86 98 46 61 67 58 60 104 139 138
68 14 -21 -24 6 2 -5 18 52 72 24 25 25 23 23 30 20 29 60 46 49 62 67 58 86 85 102 93 97 81 122 158 191 163 89 134 97 10 80 79 77 59 75 111 104
80 -18 -11 -0 3 10 14 47 84 43 44 21 22 18 35 36 31 28 62 50 48 66 66 79 61 116 106 106 129 96 126 186 245 191 148 123 64 39 84 88 66 56 110 125 147
36 17 11 12 14 16 44 99 57 48 31 36 21 41 30 25 32 42 63 59 60 82 94 113 109 154 120 103 115 131 176 124 170 117 191 78 74 106 67 57 46 84 100 123 157
18 22 18 28 24 27 73 66 50 38 35 36 56 40 43 32 52 55 51 69 89 109 101 140 157 120 152 128 104 116 91 191 165 189 184 152 101 83 70 -6 86 91 62 90 148
31 45 17 37 23 58 80 55 48 40 40 52 47 49 47 51 53 49 50 99 118 124 114 141 199 149 160 167 169 159 149 135 142 167 224 229 149 148 70 116 85 35 71 79 138
36 51 20 35 72 68 73 58 42 50 49 55 58 50 56 57 59 59 82 96 156 165 142 129 217 214 177 163 117 162 174 167 246 219 249 278 326 62 154 200 82 -18 37 99 107
43 35 40 67 84 83 64 83 70 71 56 59 63 67 80 67 62 80 106 132 162 164 156 164 208 220 153 163 162 233 157 136 173 172 305 327 259 146 236 172 47 66 117 189 134
63 81 66 95 92 97 90 83 87 72 71 81 79 92 86 79 76 93 134 138 156 163 207 214 237 261 265 200 172 140 140 174 170 265 274 415 230 145 155 167 127 189 223 194 145
82 82 74 97 97 111 101 91 94 82 83 87 90 76 107 95 106 140 115 169 200 224 280 264 315 281 214 137 158 166 117 81 199 216 283 187 214 174 144 190 277 231 155 172 91
122 130 126 106 114 126 124 90 86 114 133 89 102 109 98 139 144 160 167 168 191 270 293 295 293 304 299 172 149 175 172 185 161 149 167 154 117 119 359 302 239 197 134 130 81
143 130 155 142 134 163 116 98 88 135 92 130 97 150 136 113 150 167 171 219 240 293 289 346 320 265 274 227 171 189 97 129 191 203 184 214 259 309 342 286 199 168 135 102 36
Wind_Speed
24 26 24 23 25 24 17 14 19 24 27 29 30 32 34 26 41 56 31 22 17 4 8 22 41 28 37 42 38 37 40 42 37 36 33 34 34 34 31 32 37 33 35 41 53
26 27 24 18 17 16 11 13 18 23 27 30 33 35 32 26 35 52 24 15 14 14 32 44 42 40 43 41 40 41 39 36 38 40 36 36 35 32 29 27 31 31 41 47 55
18 18 17 12 9 7 11 18 23 28 31 35 36 34 28 25 38 25 11 13 13 16 28 25 25 34 47 45 43 40 39 35 38 38 37 35 33 30 27 23 24 27 36 49 56
18 16 16 12 10 5 18 25 30 35 37 39 39 35 29 31 38 21 15 18 19 24 42 39 45 42 43 50 42 42 43 37 33 34 32 31 30 28 24 20 24 29 35 46 54
20 18 19 16 6 11 26 33 38 41 40 39 37 30 32 38 36 22 24 24 30 36 47 43 51 43 45 42 44 45 38 37 33 33 34 31 26 26 21 22 24 28 35 41 49
24 21 20 15 4 11 28 37 39 40 39 35 28 25 34 43 26 22 21 29 34 40 45 47 42 38 43 44 45 39 38 35 32 32 31 30 29 28 26 24 24 29 33 37 43
25 23 22 17 3 12 26 32 34 35 34 33 27 35 54 40 27 20 22 31 38 39 40 41 41 45 40 40 40 38 39 32 28 28 31 31 26 20 23 22 23 27 31 35 36
23 25 23 14 3 9 24 31 33 34 30 27 27 36 44 33 30 31 30 39 34 38 39 37 40 44 45 38 36 39 38 45 37 27 30 33 29 38 24 22 20 25 29 32 31
27 27 24 14 4 11 24 31 31 29 29 26 35 37 42 32 40 31 38 40 32 36 38 37 41 46 43 46 47 50 50 51 42 24 33 28 28 27 20 19 20 21 27 30 31
29 27 25 17 7 13 25 34 32 26 29 31 35 39 40 34 31 33 36 36 39 40 42 46 48 51 59 62 56 51 51 46 44 34 28 25 13 20 13 16 17 22 27 31 32
32 31 29 22 12 14 29 32 38 42 52 50 43 43 37 27 32 47 38 37 39 43 49 46 61 59 56 50 47 44 43 44 44 37 43 30 13 5 21 18 21 25 28 30 32
36 34 31 24 11 8 37 40 38 37 45 43 43 43 39 38 45 49 51 45 48 54 49 48 57 48 44 47 45 50 48 49 41 37 38 32 18 33 32 27 25 25 27 29 31
40 40 37 29 12 49 49 42 35 36 38 43 42 44 42 41 46 49 54 43 49 53 53 51 49 44 44 50 55 52 53 51 46 44 36 45 39 37 38 36 35 31 29 29 28
47 45 42 35 41 44 45 36 33 34 37 47 45 43 43 39 44 42 47 46 47 52 49 48 44 48 47 49 53 52 46 48 45 49 47 46 41 38 33 32 29 30 29 27 28
52 49 46 49 42 46 38 34 32 34 40 45 44 38 41 49 43 51 45 47 50 49 50 50 49 51 50 49 49 44 48 41 36 37 42 39 42 38 37 38 35 25 25 26 27
57 52 50 45 44 42 38 35 34 41 42 43 45 50 45 49 47 48 51 49 42 46 45 45 42 44 47 45 41 46 50 47 41 39 46 38 43 37 39 39 43 40 28 26 28
59 54 47 44 46 40 35 34 41 45 41 46 47 47 48 51 48 52 52 60 60 61 63 52 47 43 44 54 48 63 61 56 52 50 46 34 41 32 37 36 40 41 31 26 27
59 50 38 41 43 37 34 38 44 41 43 42 43 45 47 53 48 53 51 53 59 56 57 63 64 52 50 53 55 55 55 55 58 53 47 35 29 41 42 39 43 44 30 28 27
57 42 38 40 38 36 36 44 40 40 40 46 46 47 47 49 50 52 51 49 51 55 62 61 57 49 46 50 52 53 55 45 47 44 45 34 31 46 43 42 43 44 42 32 29
52 44 37 40 35 37 39 38 37 36 39 40 48 46 52 54 52 55 47 44 48 48 51 53 63 49 51 49 43 46 43 51 47 54 54 38 38 42 49 54 45 51 49 37 32
46 43 37 40 37 39 39 38 36 34 37 42 43 45 45 48 48 51 48 45 41 46 50 51 50 60 55 54 52 49 50 41 39 41 47 50 39 42 50 49 52 58 51 44 37
44 45 38 37 39 38 39 35 33 33 35 37 38 41 44 47 48 48 49 46 40 46 55 47 55 64 64 52 44 40 42 41 49 50 39 43 46 43 37 46 59 67 65 59 48
51 44 36 37 39 41 35 35 34 35 36 37 41 38 40 44 53 44 45 41 40 47 50 49 57 75 71 54 47 50 44 42 38 38 42 44 42 35 44 59 69 66 67 67 73
45 46 40 38 35 37 38 40 39 35 37 36 38 39 42 46 41 48 49 45 41 45 41 45 52 53 64 59 58 59 49 43 39 47 48 38 47 49 62 69 64 64 66 71 75
39 43 39 43 41 39 39 39 43 43 35 34 40 38 41 52 50 48 47 52 48 48 45 46 58 52 51 53 55 55 53 44 42 42 47 51 51 52 66 61 56 62 68 75 74
46 46 44 47 43 42 41 45 44 42 38 44 44 43 39 47 48 59 57 57 59 51 47 47 63 64 65 56 52 58 55 47 41 36 36 44 50 57 50 56 67 73 75 78 78
42 42 45 49 47 47 50 48 46 39 43 42 43 47 50 50 53 54 54 55 53 55 51 52 57 66 76 64 70 75 44 42 42 41 44 52 48 53 61 66 69 71 73 76 73
Wind_Direction
330 328 319 310 309 304 276 225 176 149 138 141 138 131 113 117 89 53 83 91 95 114 107 92 67 82 65 51 59 59 53 49 51 46 49 40 28 32 44 37 21 26 18 357 340
331 330 323 308 299 291 243 192 171 162 152 144 135 126 114 115 96 65 84 93 95 96 77 62 64 64 60 55 51 51 52 51 47 40 43 34 26 26 33 50 32 24 1 350 342
333 333 330 314 301 273 179 150 146 144 139 131 129 125 121 116 93 88 75 87 94 90 78 80 80 69 52 53 51 53 50 54 44 43 38 34 34 34 39 45 40 26 10 351 345
334 337 335 323 313 194 144 134 132 128 128 126 120 121 119 108 91 90 78 81 86 77 59 67 60 62 56 48 53 49 43 49 54 48 47 44 46 36 44 55 49 28 15 360 351
331 335 336 333 341 140 132 124 120 118 122 123 124 127 113 95 90 84 77 80 80 73 61 65 55 62 55 54 48 47 51 50 56 53 46 43 41 40 46 60 56 41 23 11 1
327 330 335 339 354 137 128 120 120 119 122 127 133 130 109 83 98 86 86 79 75 73 68 66 68 64 60 56 52 56 57 57 57 48 47 42 36 36 44 67 58 41 30 25 16
323 326 330 332 310 144 129 127 128 128 127 129 129 112 78 86 99 88 83 83 73 75 72 71 65 61 61 60 58 60 52 53 52 50 43 45 44 49 49 67 56 43 34 31 31
317 322 324 323 274 162 135 131 132 131 132 129 123 103 83 93 90 76 76 75 76 74 73 72 67 63 58 60 58 50 47 34 40 54 45 41 34 23 47 52 51 41 38 37 40
317 317 318 315 257 168 138 131 132 136 128 120 100 92 74 88 69 71 66 66 78 76 69 71 63 56 52 44 43 39 32 30 34 53 38 39 25 26 51 53 42 48 40 39 40
315 313 311 303 268 176 138 118 119 127 111 106 91 80 71 73 71 63 67 69 65 58 58 54 49 45 38 37 36 31 30 26 26 34 33 24 12 32 51 35 46 45 38 35 37
314 312 308 297 284 191 117 99 74 67 47 66 71 69 68 76 72 49 55 62 60 55 45 49 35 34 34 38 37 30 25 22 22 34 18 30 10 1 30 51 44 37 32 34 35
312 310 304 287 258 224 70 50 63 78 49 64 62 58 59 58 49 44 42 50 46 40 43 41 34 37 38 34 32 25 24 23 26 21 18 26 18 31 37 39 42 39 34 36 36
312 312 307 286 164 26 34 47 81 68 45 46 50 48 49 49 43 39 36 46 40 36 35 35 33 36 34 29 24 24 22 19 15 16 29 19 27 29 29 34 33 33 34 36 36
315 313 310 293 26 35 27 51 66 59 32 24 31 37 39 45 38 41 39 41 39 32 35 32 33 28 27 25 21 19 22 13 13 17 19 20 18 21 31 31 32 29 30 32 32
316 313 314 351 20 13 31 48 55 44 16 16 22 38 35 31 30 28 37 36 31 30 29 24 24 23 22 20 19 17 7 5 11 21 19 22 16 16 22 17 23 34 36 35 33
316 314 321 359 10 18 28 42 39 4 3 9 14 12 22 22 26 26 27 32 36 28 27 25 30 28 19 16 17 9 9 17 25 21 14 20 14 12 12 14 11 21 34 36 33
315 319 339 355 359 11 25 25 359 356 3 356 2 7 11 12 17 19 21 18 18 12 12 17 19 23 22 11 15 8 9 8 10 10 8 20 6 10 8 11 12 14 25 30 27
311 333 355 359 359 10 17 4 349 359 357 2 3 2 6 8 11 11 15 13 15 16 10 8 7 12 14 12 7 9 12 10 360 1 356 5 14 7 4 6 4 7 17 15 14
319 352 356 1 3 7 4 347 351 355 360 354 355 356 359 3 6 7 10 11 13 15 7 5 4 10 12 10 8 7 7 8 0 360 358 6 8 351 356 357 355 1 4 1 2
336 344 355 357 4 1 356 352 354 2 1 1 351 356 351 355 360 2 6 10 9 14 14 6 357 9 7 8 13 10 11 1 4 357 353 355 352 352 353 350 352 355 353 354 350
339 338 350 355 356 353 347 350 355 1 1 354 353 353 356 356 360 359 2 5 12 8 8 4 3 358 2 0 359 3 1 6 3 357 350 348 351 353 345 349 351 351 349 346 344
336 328 347 352 342 347 342 351 358 358 360 358 358 354 353 355 354 356 356 1 9 4 358 3 356 350 351 357 2 7 5 2 353 350 347 343 332 344 353 352 348 346 347 346 342
323 326 343 345 330 332 342 344 348 348 351 351 346 352 355 352 347 351 354 1 3 360 357 358 353 346 351 1 7 360 356 351 346 342 327 331 336 357 349 341 341 344 347 347 345
325 321 329 337 334 331 330 331 333 344 343 345 344 347 345 344 346 346 346 351 353 353 356 355 348 345 340 340 342 340 340 334 329 329 326 306 308 319 327 332 337 342 345 344 343
322 317 323 320 322 325 326 327 325 328 336 339 337 333 337 336 338 335 339 341 343 345 347 346 337 336 332 334 334 330 328 328 318 307 311 309 313 314 329 334 340 342 341 341 341
310 312 315 312 315 315 318 318 317 322 326 327 325 332 329 327 329 328 333 334 334 340 340 340 335 339 335 334 333 332 327 324 321 316 307 307 311 333 346 343 337 338 338 338 338
312 313 309 309 310 309 310 312 316 319 320 322 323 324 322 319 322 324 325 326 324 327 328 331 332 336 331 341 338 334 342 348 345 337 333 328 334 341 337 337 336 337 338 337 337